SCP
1 1 1 1 1 1 1 1 1 0 0 0 0 0 0 0 0 0 0 0 0 0 0 0 1 1 1 1 0 0 0 0 0 0 0 1 1 1
1 1 1 1 1 1 1 1 1 0 0 0 0 0 0 0 0 0 0 0 0 0 0 0 0 1 0 0 0 0 0 0 0 0 0 0 1 1
1 1 1 1 1 1 1 1 1 0 0 0 0 0 0 0 0 0 0 0 0 0 0 0 0 1 1 1 0 0 0 0 0 0 0 0 0 1
1 1 1 1 1 1 1 1 1 1 0 0 0 0 0 0 0 0 0 0 0 0 0 0 0 1 1 1 0 0 0 0 0 0 0 0 0 0
1 1 1 1 1 1 1 1 1 1 0 0 0 0 0 0 0 0 0 0 0 0 0 0 0 0 1 0 0 0 0 0 0 0 0 0 0 0
1 0 0 0 1 1 1 1 1 1 1 0 0 0 0 0 0 0 0 0 0 0 0 0 0 0 0 0 0 0 0 0 0 0 0 0 0 0
0 0 0 0 0 1 1 1 1 1 1 0 0 0 0 0 0 0 0 0 0 0 0 0 0 0 0 0 0 0 0 0 0 0 0 0 0 0
0 0 0 0 0 0 1 1 1 1 1 0 0 0 0 0 0 0 0 0 0 0 0 0 0 0 0 0 0 0 0 0 0 0 0 0 0 0
0 0 1 1 1 0 0 1 1 0 0 0 0 0 0 0 0 0 0 0 0 0 0 0 0 0 0 0 0 0 0 0 0 0 0 0 0 0
0 0 1 1 1 0 0 0 0 0 0 0 0 0 0 0 0 0 0 0 0 0 0 0 0 0 0 0 0 0 0 0 0 0 0 0 0 0
0 0 1 1 1 0 0 0 0 0 0 0 0 0 0 0 0 0 0 0 0 0 0 0 0 0 0 0 0 0 0 0 0 0 0 0 0 0
0 0 0 0 0 0 0 0 0 0 0 0 0 0 0 0 0 0 0 0 0 0 0 0 0 0 0 0 0 0 0 0 0 0 0 0 0 0
0 0 0 0 0 0 0 0 0 0 0 0 0 0 0 0 0 0 0 0 0 0 0 0 0 0 0 0 0 0 0 0 0 0 0 0 0 0
0 0 0 0 0 0 0 0 0 0 0 0 0 0 0 0 0 0 0 0 0 0 0 0 0 0 0 0 0 0 0 0 0 0 0 0 0 0
0 0 0 0 0 0 0 0 0 0 0 0 0 0 0 0 0 0 0 0 0 0 0 0 0 0 0 0 0 0 0 0 0 0 0 0 0 0
0 0 0 0 0 0 0 0 0 0 0 0 0 0 0 0 0 0 0 0 0 0 0 0 0 0 0 0 0 0 0 0 0 0 0 0 0 0
0 0 0 0 0 0 0 0 0 0 0 0 0 0 0 0 0 0 0 0 0 0 0 0 0 0 0 0 0 0 0 0 0 0 0 0 0 0
0 0 0 0 0 0 0 0 0 0 0 0 0 0 0 0 0 0 0 0 0 0 0 0 0 0 0 0 0 0 0 0 0 0 0 0 0 0
0 0 0 0 0 0 0 0 0 0 0 0 0 0 0 0 0 0 0 0 0 0 0 0 0 0 0 0 0 0 0 0 0 0 0 0 0 0
0 0 0 0 0 0 0 0 0 0 0 0 0 0 0 0 0 0 0 0 0 0 0 0 0 0 0 0 0 0 0 0 0 0 0 0 0 0
0 0 0 0 0 0 0 0 0 0 0 0 0 0 0 0 0 0 0 0 0 0 0 0 0 0 0 0 0 0 0 0 0 0 0 0 0 0
0 0 0 0 0 0 0 0 0 0 0 0 0 0 0 0 0 0 0 0 0 0 0 0 0 0 0 0 0 0 0 0 0 0 0 0 0 0
0 0 0 0 0 0 0 0 0 0 0 0 0 0 0 0 0 0 0 0 0 0 0 0 0 0 0 0 0 0 0 0 0 0 0 0 0 0
Wind_Speed
6 6 4 4 4 4 3 3 4 3 2 2 1 1 1 2 4 2 3 9 10 9 8 7 7 6 5 4 3 2 2 3 3 3 4 4 4 5
4 5 5 4 4 4 3 3 3 3 2 1 1 1 1 2 4 1 2 8 9 8 7 7 6 5 4 3 2 2 2 3 4 4 5 5 5 5
3 5 5 5 4 4 3 3 3 3 3 1 1 1 1 1 1 1 2 3 4 7 6 6 5 4 3 1 1 1 2 3 4 4 5 5 5 6
3 3 4 4 4 4 3 4 3 3 3 3 1 1 1 1 1 1 2 3 4 6 6 5 5 4 4 4 3 1 1 1 2 2 3 4 5 5
3 3 3 4 4 3 3 3 3 3 2 3 2 1 1 1 1 1 2 3 4 6 7 6 7 8 7 6 5 4 3 3 3 3 3 3 3 4
4 4 3 3 3 4 3 3 3 3 3 3 2 2 1 1 2 2 2 2 3 4 6 7 10 11 10 9 8 7 6 5 5 4 4 4 4 4
4 4 4 6 6 4 3 3 4 3 3 3 2 2 2 2 2 2 3 3 3 4 5 4 5 5 6 8 9 9 8 8 7 6 6 6 5 5
4 4 5 6 8 9 9 7 5 4 3 3 2 3 2 2 2 3 3 3 2 2 4 5 5 6 5 5 8 10 10 9 8 8 8 8 7 7
4 3 4 5 5 5 7 8 8 7 5 4 4 3 2 2 3 3 3 3 3 3 5 5 4 5 4 6 11 11 11 10 10 9 9 8 7 7
4 4 5 5 5 5 7 7 8 7 5 5 5 4 4 3 3 3 4 5 5 3 4 4 2 3 4 4 9 11 11 11 10 10 9 8 7 7
6 7 6 6 8 8 7 7 7 6 9 11 10 8 9 9 6 4 4 5 4 2 2 3 3 3 3 3 5 9 9 10 10 11 11 9 6 5
5 7 11 9 8 7 6 6 6 4 4 5 6 6 6 7 7 4 3 4 4 2 1 3 3 3 3 2 1 2 4 6 9 10 11 11 9 4
5 5 5 10 11 10 7 5 5 4 4 5 5 5 5 5 5 5 4 4 4 3 2 3 2 2 3 2 1 1 1 1 2 4 7 10 12 8
5 4 5 10 11 10 7 7 7 5 4 5 5 4 4 4 4 5 6 6 6 4 3 3 2 2 3 3 2 1 2 2 2 2 2 5 7 9
4 6 6 6 7 6 8 7 5 4 4 5 4 3 3 3 4 4 6 7 7 7 7 5 4 3 4 3 3 2 1 2 3 3 2 2 2 3
3 4 6 7 5 4 4 5 4 4 4 4 3 3 3 3 3 3 3 4 5 5 7 8 7 6 5 5 4 3 2 1 2 2 2 2 3 3
2 0 1 2 3 3 3 3 3 3 4 3 3 3 3 3 2 2 3 3 4 3 3 4 5 7 7 5 4 3 2 1 1 1 2 1 1 3
4 2 3 3 3 3 3 3 3 3 3 3 3 2 2 2 2 2 2 4 4 3 3 2 2 2 3 5 5 2 2 1 0 1 1 1 0 1
2 2 3 3 2 3 3 3 3 2 2 3 2 2 2 2 2 2 3 3 3 3 2 1 1 1 2 1 2 3 2 1 1 1 1 0 1 2
2 2 3 2 2 2 2 2 2 2 2 2 2 2 2 2 2 3 3 3 2 2 2 2 2 2 2 3 3 0 1 2 1 1 2 1 1 1
2 2 2 2 2 2 2 2 2 2 2 2 2 2 2 2 2 3 3 2 1 2 3 2 1 1 0 2 2 1 1 1 2 2 0 1 2 2
2 2 2 2 2 2 1 1 1 1 1 1 1 1 1 2 2 2 2 1 1 2 3 2 1 0 1 1 1 2 2 2 2 1 2 4 3 2
2 2 2 2 1 1 1 1 1 2 2 1 2 1 1 1 1 1 1 2 2 3 3 2 1 0 0 0 0 1 2 2 2 2 3 8 10 10
Wind_Direction
188 186 183 188 188 189 180 171 171 186 220 213 206 63 86 107 143 172 169 184 185 189 193 195 195 196 196 201 219 252 278 290 291 289 291 292 295 298
179 183 181 181 182 178 174 174 171 168 185 194 180 165 133 148 161 176 168 172 182 185 191 191 192 192 192 201 217 238 263 274 275 275 279 284 288 292
182 181 180 172 169 170 164 165 169 163 174 177 153 142 146 123 140 182 155 154 159 171 176 175 175 171 156 156 199 257 272 284 286 281 283 284 282 285
152 147 149 147 146 148 156 162 167 168 158 163 154 141 137 126 137 158 151 145 133 146 149 147 141 125 112 101 85 61 12 338 315 316 311 302 298 298
106 120 126 134 144 150 154 154 156 149 137 144 146 146 128 131 118 118 117 110 124 132 123 111 107 100 92 84 75 64 54 44 30 17 6 355 342 331
77 88 103 118 139 153 154 151 144 140 139 138 142 144 140 140 126 124 108 99 104 113 101 100 97 88 79 73 69 66 60 55 49 44 39 31 20 9
70 81 94 102 99 110 123 133 135 135 141 139 138 125 124 123 140 129 114 102 83 100 102 96 91 78 68 63 62 63 64 61 57 55 53 48 43 42
71 77 97 101 101 96 95 95 101 119 123 123 122 120 125 129 125 123 126 122 104 99 98 87 81 73 62 60 61 66 65 64 62 61 60 57 54 53
67 72 90 93 96 100 94 85 70 69 93 117 115 119 123 135 130 126 126 115 113 126 104 92 83 79 71 65 68 66 64 62 62 63 62 61 61 62
61 58 73 73 73 83 92 80 67 53 65 83 92 82 80 86 107 120 119 101 92 88 97 99 93 88 84 70 70 70 65 64 64 64 61 55 58 70
61 56 57 64 66 82 96 97 90 77 72 83 91 90 80 72 78 91 102 112 111 98 73 101 120 111 101 89 75 73 69 68 65 63 57 49 53 70
60 57 53 56 58 80 94 98 100 103 104 93 83 75 71 67 72 88 109 118 119 110 76 94 140 135 116 113 117 86 69 68 70 64 57 50 43 58
59 54 45 51 60 68 76 89 98 102 97 93 82 69 60 54 54 61 75 103 107 102 125 110 135 128 115 125 106 95 92 84 70 61 57 58 56 57
59 55 50 56 60 62 65 63 66 75 83 81 75 68 65 57 50 55 65 69 75 90 86 95 114 128 117 114 111 67 42 43 61 69 65 58 59 59
61 62 59 61 58 58 55 54 61 73 80 86 87 82 77 74 63 59 59 62 56 53 51 54 73 89 100 112 122 116 84 32 32 45 57 73 64 52
66 65 64 64 61 50 51 55 58 73 90 96 99 94 85 76 73 84 94 89 71 46 40 48 59 75 81 85 96 91 81 77 24 25 43 52 61 75
354 49 75 69 64 56 52 53 62 67 72 78 92 92 87 82 76 76 87 91 96 93 63 50 63 72 72 76 88 87 89 78 59 12 33 41 62 100
19 61 72 71 73 77 75 61 57 57 63 77 85 94 104 107 96 73 90 102 109 106 104 104 103 79 67 44 41 88 86 90 46 333 12 53 20 123
33 68 79 79 75 76 78 80 72 62 56 69 80 84 90 98 99 87 85 94 105 116 118 109 81 110 132 129 357 29 84 84 356 319 297 224 209 194
59 75 78 74 71 76 80 82 78 63 60 70 70 67 69 86 91 91 89 92 108 116 101 66 55 55 96 145 159 166 58 95 76 349 315 309 289 139
107 89 90 89 79 77 75 81 89 82 72 76 77 60 61 79 87 97 101 100 103 115 117 117 192 213 266 76 95 136 225 191 155 157 66 13 343 339
126 125 115 109 109 105 99 84 115 124 105 100 104 74 62 87 109 116 132 147 124 112 123 153 206 350 51 84 144 170 195 232 248 225 222 189 174 203
159 152 149 152 141 138 166 217 212 172 155 143 146 152 119 95 114 128 131 126 121 128 137 154 169 125 95 108 126 161 175 195 202 224 263 238 229 232